Location: Prairie State College
(41.5244°N, 87.6382°W)
Time: 01:58:32
(UTC-05:00)

ISS - All Passes

Search period start: 20 April 2018 00:00
Search period end: 30 April 2018 00:00
Orbit: 403 x 406 km, 51.6° (Epoch: 20 April)

Date Brightness Start Highest point End Pass type
(mag) Time Alt. Az. Time Alt. Az. Time Alt. Az.
20 Apr - 09:13:34 10° S 09:16:13 23° SE 09:18:52 10° E daylight
20 Apr - 10:49:24 10° WSW 10:52:32 42° NNW 10:55:41 10° NE daylight
20 Apr - 12:27:34 10° NW 12:29:40 16° N 12:31:46 10° NNE daylight
20 Apr - 14:04:57 10° NNW 14:07:07 16° N 14:09:17 10° NE daylight
20 Apr - 15:41:00 10° NW 15:44:12 47° NNE 15:47:24 10° ESE daylight
20 Apr - 17:17:58 10° W 17:20:28 20° SW 17:22:59 10° S daylight
21 Apr - 08:22:45 10° SSE 08:24:11 12° SE 08:25:37 10° ESE daylight
21 Apr - 09:56:59 10° WSW 10:00:15 75° NNW 10:03:31 10° NE daylight
21 Apr - 11:34:44 10° WNW 11:37:09 19° NNW 11:39:35 10° NNE daylight
21 Apr - 13:12:41 10° NNW 13:14:35 14° N 13:16:30 10° NE daylight
21 Apr - 14:48:53 10° NW 14:51:51 30° NNE 14:54:48 10° E daylight
21 Apr - 16:25:17 10° WNW 16:28:22 38° SW 16:31:27 10° SSE daylight
22 Apr - 09:04:49 10° SW 09:08:01 57° SE 09:11:15 10° ENE daylight
22 Apr - 10:41:55 10° W 10:44:41 25° NNW 10:47:28 10° NE daylight
22 Apr - 12:20:11 10° NW 12:22:01 14° N 12:23:52 10° NNE daylight
22 Apr - 13:56:46 10° NW 13:59:24 22° NNE 14:02:02 10° ENE daylight
22 Apr - 15:32:55 10° WNW 15:36:12 77° SW 15:39:27 10° SE daylight
23 Apr - 08:12:59 10° SSW 08:15:51 29° SE 08:18:44 10° ENE daylight
23 Apr - 09:49:13 10° W 09:52:16 36° NNW 09:55:20 10° NE daylight
23 Apr - 11:27:28 10° NW 11:29:27 15° N 11:31:27 10° NNE daylight
23 Apr - 13:04:37 10° NNW 13:06:54 17° NNE 13:09:11 10° ENE daylight
23 Apr - 14:40:40 10° NW 14:43:55 58° NNE 14:47:09 10° ESE daylight
23 Apr - 16:17:56 10° W 16:20:05 16° SW 16:22:14 10° S daylight
24 Apr - 07:21:44 10° S 07:23:45 15° SE 07:25:47 10° E daylight
24 Apr - 08:56:41 10° WSW 08:59:55 60° NNW 09:03:10 10° NE daylight
24 Apr - 10:34:36 10° WNW 10:36:54 17° NNW 10:39:12 10° NNE daylight
24 Apr - 12:12:22 10° NNW 12:14:21 15° N 12:16:20 10° NE daylight
24 Apr - 13:48:29 10° NW 13:51:33 34° NNE 13:54:36 10° E daylight
24 Apr - 15:25:03 10° WNW 15:27:59 30° SW 15:30:54 10° SSE daylight
25 Apr - 08:04:22 10° SW 08:07:37 72° SE 08:10:53 10° ENE daylight
25 Apr - 09:41:44 10° WNW 09:44:22 22° NNW 09:47:02 10° NE daylight
25 Apr - 11:19:54 10° NNW 11:21:45 14° N 11:23:35 10° NE daylight
25 Apr - 12:56:21 10° NW 12:59:06 24° NNE 13:01:50 10° ENE daylight
25 Apr - 14:32:32 10° WNW 14:35:47 60° SW 14:39:00 10° SE daylight
26 Apr - 07:12:22 10° SSW 07:15:23 36° SE 07:18:26 10° ENE daylight
26 Apr - 08:48:56 10° W 08:51:53 31° NNW 08:54:52 10° NE daylight
26 Apr - 10:27:13 10° NW 10:29:08 14° N 10:31:03 10° NNE daylight
26 Apr - 12:04:10 10° NNW 12:06:34 18° NNE 12:08:58 10° ENE daylight
26 Apr - 13:40:13 10° NW 13:43:30 71° NE 13:46:46 10° ESE daylight
26 Apr - 15:17:56 10° W 15:19:35 13° SW 15:21:12 10° SSW daylight
27 Apr - 06:20:49 10° S 06:23:14 19° SE 06:25:40 10° E daylight
27 Apr - 07:56:18 10° WSW 07:59:28 49° NNW 08:02:40 10° NE daylight
27 Apr - 09:34:21 10° NW 09:36:32 16° NNW 09:38:43 10° NNE daylight
27 Apr - 11:11:54 10° NNW 11:13:58 15° N 11:16:03 10° NE daylight
27 Apr - 12:47:59 10° NW 12:51:07 40° NNE 12:54:14 10° E daylight
27 Apr - 14:24:43 10° WNW 14:27:28 24° SW 14:30:11 10° SSE daylight
28 Apr - 05:30:58 10° SE 05:31:09 10° SE 05:31:19 10° SE daylight
28 Apr - 07:03:51 10° SW 07:07:07 90° NNW 07:10:24 10° NE daylight
28 Apr - 08:41:26 10° WNW 08:43:57 20° NNW 08:46:29 10° NNE daylight
28 Apr - 10:19:29 10° NNW 10:21:21 14° N 10:23:13 10° NE daylight
28 Apr - 11:55:48 10° NW 11:58:39 27° NNE 12:01:30 10° E daylight
28 Apr - 13:32:05 10° WNW 13:35:15 47° SW 13:38:25 10° SE daylight
29 Apr - 06:11:41 10° SSW 06:14:50 46° SE 06:17:58 10° ENE daylight
29 Apr - 07:48:33 10° W 07:51:25 27° NNW 07:54:17 10° NE daylight
29 Apr - 09:26:50 10° NW 09:28:42 14° N 09:30:34 10° NNE daylight
29 Apr - 11:03:35 10° NNW 11:06:07 20° NNE 11:08:38 10° ENE daylight
29 Apr - 12:39:40 10° NW 12:42:57 88° NNE 12:46:13 10° SE daylight
29 Apr - 14:18:20 10° WSW 14:18:57 10° SW 14:19:32 10° SW daylight
